AKST,Max TemperatureF,Mean TemperatureF,Min TemperatureF,Max Dew PointF,MeanDew PointF,Min DewpointF,Max Humidity, Mean Humidity, Min Humidity, Max Sea Level PressureIn, Mean Sea Level PressureIn, Min Sea Level PressureIn, Max VisibilityMiles, Mean VisibilityMiles, Min VisibilityMiles, Max Wind SpeedMPH, Mean Wind SpeedMPH, Max Gust SpeedMPH,PrecipitationIn, CloudCover, Events, WindDirDegrees
2012-12-1,35,32,30,28,26,21,93,76,60,29.96,29.90,29.85,10,10,5,39,21,45,0.00,4,,326
2012-12-2,33,30,28,28,26,21,93,86,74,29.89,29.79,29.72,10,8,2,46,27,56,0.00,6,,336
2012-12-3,28,26,24,21,20,18,86,79,74,29.82,29.76,29.67,10,9,2,53,34,62,0.00,6,,334
2012-12-4,24,22,19,19,18,16,86,80,74,29.85,29.77,29.71,10,10,10,34,25,41,0.00,6,,330
2012-12-5,21,18,15,16,12,9,86,80,73,29.79,29.74,29.72,10,9,2,26,21,34,0.00,7,,322
2012-12-6,19,18,17,16,12,10,93,79,73,29.98,29.92,29.80,10,10,10,23,18,34,0.00,5,,329
2012-12-7,35,26,17,34,25,12,100,90,74,29.95,29.66,29.29,10,7,1,23,10,37,0.00,8,,29
2012-12-8,42,38,35,43,38,34,100,94,87,29.27,28.86,28.70,10,7,2,46,24,60,0.00,8,,138
2012-12-9,42,40,37,39,34,30,93,80,70,29.60,29.30,28.78,10,8,2,48,30,61,0.00,7,,216
2012-12-10,37,35,33,34,29,27,100,81,75,30.24,29.96,29.60,10,10,7,24,13,31,0.00,6,,281
2012-12-11,46,40,33,45,41,28,100,96,75,30.20,29.94,29.63,10,6,2,29,15,37,0.00,8,,175
2012-12-12,44,42,41,43,37,32,100,82,66,29.82,29.72,29.58,10,10,2,28,14,38,0.00,6,,239
2012-12-13,42,38,35,37,37,32,100,93,81,29.76,29.56,29.38,10,10,7,31,12,41,0.00,6,,237
2012-12-14,39,32,26,34,29,21,93,83,75,29.64,29.48,29.37,10,10,5,22,11,29,0.00,5,,276
2012-12-15,26,22,19,21,16,14,86,77,69,29.82,29.72,29.64,10,10,10,25,18,32,0.00,3,,329
2012-12-16,35,29,23,34,26,18,100,81,70,29.98,29.93,29.82,10,9,2,21,10,31,0.00,3,,267
2012-12-17,42,38,35,41,35,28,100,90,70,29.92,29.43,28.92,10,8,2,36,15,41,0.00,7,,201
2012-12-18,37,28,19,34,20,12,100,84,68,30.19,29.78,29.04,10,6,0,44,33,58,0.00,7,,328
2012-12-19,23,20,17,19,16,12,93,83,74,30.42,30.32,30.19,10,9,3,47,33,60,0.00,5,,328
2012-12-20,30,26,21,21,18,14,86,73,55,30.42,30.26,30.11,10,10,10,23,13,25,0.00,1,,322
2012-12-21,33,28,23,27,23,16,100,82,64,30.11,30.01,29.94,10,10,10,7,3,,0.00,1,,77
2012-12-22,33,27,19,34,25,16,100,93,80,29.95,29.73,29.53,10,10,7,33,6,40,0.00,4,,323
2012-12-23,21,18,15,18,14,10,86,82,74,29.59,29.48,29.35,10,10,10,32,21,37,0.00,5,,335
2012-12-24,24,20,17,21,16,12,86,80,74,29.43,29.36,29.29,10,10,10,22,14,26,0.00,5,,322
2012-12-25,37,32,26,36,32,21,100,95,80,29.40,29.28,28.94,10,7,2,16,7,26,0.00,8,,46
2012-12-26,39,37,35,39,38,34,100,98,93,28.92,28.66,28.58,10,8,2,21,12,39,0.00,8,,24
2012-12-27,39,36,32,37,32,27,100,88,70,29.18,29.05,28.77,10,9,2,15,8,21,0.00,7,,241
2012-12-28,39,36,33,39,37,34,100,98,93,29.19,28.88,28.40,10,6,1,23,8,34,0.00,8,,99
2012-12-29,39,37,35,36,34,32,100,88,75,29.14,28.91,28.55,10,10,4,29,14,40,0.00,6,,310
2012-12-30,37,35,33,36,34,32,100,91,81,29.11,28.71,28.49,10,8,3,23,15,33,0.00,7,,255
2012-12-31,37,36,35,36,34,30,100,89,75,29.18,29.02,28.81,10,10,5,26,12,33,0.00,7,,346